GSAT0213 (GALILEO 17)

Last updated on Tue Sep 16 2025 00:02:34 GMT+0000 (Coordinated Universal Time)

1 41861U 16069C 25257.85946767 .00000010 00000+0 00000+0 0 9994 2 41861 55.3248 108.7144 0002033 310.4274 49.6379 1.70474331 54820
UTC large
Height (km)
Speed (km/s)
/
Latitude / Longitude
Inclination (degrees)
Orbital Period (minutes)
Azimuth
Elevation
Range (km)
Doppler Factor

Next 0 passes for location: London (51.5072 / 0.1276)

Sorry there are no passes over London.